When you browse on this site, cookies collect data to enhance your experience and personalize the content and advertising you see.
Visit our Privacy Policy to learn more. By continuing to use the site, you agree to this use of cookies and data.
  • en France
  • Liste des pays
  • À 7 jours
  • Température de l'eau
  • Carte satellitaire
  • Carte météo
  • Widgets météo
  • user-avatar
    Se connecter

    Météo par heure à Gjirokastёr

    Ce jour, 26 Juin, Mercredi

    Heure Température Précipitation Vent Pression Humidité
    00:00 +16°C° 0 mm 2 m/s 655 mmHg 68%
    01:00 +16°C° 0 mm 2 m/s 654 mmHg 68%
    02:00 +15°C° 0 mm 2 m/s 654 mmHg 68%
    03:00 +15°C° 0 mm 2 m/s 654 mmHg 68%
    04:00 +15°C° 0 mm 2 m/s 654 mmHg 68%
    05:00 +17°C° 0 mm 2 m/s 654 mmHg 65%
    06:00 +18°C° 0 mm 2 m/s 655 mmHg 62%
    07:00 +21°C° 0 mm 1 m/s 656 mmHg 58%
    08:00 +22°C° 0 mm 1 m/s 656 mmHg 54%
    09:00 +24°C° 0 mm 1 m/s 656 mmHg 49%
    10:00 +25°C° 0 mm 1 m/s 657 mmHg 45%
    11:00 +25°C° 0.1 mm 1 m/s 657 mmHg 44%
    12:00 +25°C° 0.1 mm 2 m/s 657 mmHg 44%
    13:00 +25°C° 0.1 mm 2 m/s 657 mmHg 44%
    14:00 +25°C° 0.3 mm 2 m/s 657 mmHg 45%
    15:00 +25°C° 0.3 mm 2 m/s 656 mmHg 47%
    16:00 +25°C° 0.3 mm 2 m/s 656 mmHg 48%
    17:00 +23°C° 0.1 mm 2 m/s 656 mmHg 54%
    18:00 +22°C° 0.1 mm 1 m/s 656 mmHg 59%
    19:00 +20°C° 0.1 mm 1 m/s 655 mmHg 65%
    20:00 +20°C° 0 mm 1 m/s 655 mmHg 67%
    21:00 +19°C° 0 mm 1 m/s 655 mmHg 68%
    22:00 +17°C° 0 mm 2 m/s 655 mmHg 70%
    23:00 +17°C° 0 mm 2 m/s 655 mmHg 71%

    Demain, 27 Juin, Jeudi

    Heure Température Précipitation Vent Pression Humidité
    00:00 +16°C° 0 mm 2 m/s 655 mmHg 71%
    01:00 +16°C° 0 mm 2 m/s 655 mmHg 72%
    02:00 +16°C° 0 mm 2 m/s 654 mmHg 72%
    03:00 +16°C° 0 mm 2 m/s 654 mmHg 72%
    04:00 +15°C° 0 mm 2 m/s 654 mmHg 73%
    05:00 +17°C° 0 mm 2 m/s 654 mmHg 69%
    06:00 +19°C° 0 mm 1 m/s 655 mmHg 65%
    07:00 +21°C° 0 mm 1 m/s 655 mmHg 61%
    08:00 +22°C° 0 mm 1 m/s 655 mmHg 56%
    09:00 +23°C° 0 mm 1 m/s 656 mmHg 51%
    10:00 +25°C° 0 mm 1 m/s 656 mmHg 46%
    11:00 +25°C° 0 mm 2 m/s 656 mmHg 44%
    12:00 +26°C° 0 mm 2 m/s 656 mmHg 43%
    13:00 +26°C° 0 mm 2 m/s 656 mmHg 41%
    14:00 +26°C° 0 mm 2 m/s 655 mmHg 43%
    15:00 +25°C° 0 mm 2 m/s 655 mmHg 46%
    16:00 +25°C° 0 mm 2 m/s 654 mmHg 48%
    17:00 +24°C° 0 mm 2 m/s 654 mmHg 54%
    18:00 +21°C° 0 mm 2 m/s 653 mmHg 60%
    19:00 +21°C° 0 mm 1 m/s 652 mmHg 66%
    20:00 +20°C° 0 mm 1 m/s 652 mmHg 67%
    21:00 +19°C° 0 mm 1 m/s 652 mmHg 67%
    22:00 +19°C° 0 mm 1 m/s 652 mmHg 67%
    23:00 +18°C° 0 mm 1 m/s 652 mmHg 68%

    Après-demain, 28 Juin, Vendredi

    Heure Température Précipitation Vent Pression Humidité
    00:00 +18°C° 0 mm 1 m/s 652 mmHg 69%
    01:00 +16°C° 0 mm 1 m/s 651 mmHg 70%
    02:00 +16°C° 0 mm 1 m/s 651 mmHg 70%
    03:00 +16°C° 0 mm 1 m/s 651 mmHg 70%
    04:00 +16°C° 0 mm 1 m/s 650 mmHg 69%
    05:00 +18°C° 0 mm 1 m/s 651 mmHg 65%
    06:00 +20°C° 0 mm 1 m/s 651 mmHg 60%
    07:00 +22°C° 0 mm 1 m/s 652 mmHg 55%
    08:00 +23°C° 0 mm 1 m/s 652 mmHg 49%
    09:00 +25°C° 0 mm 1 m/s 652 mmHg 43%
    10:00 +26°C° 0 mm 1 m/s 653 mmHg 37%
    11:00 +27°C° 0 mm 2 m/s 653 mmHg 38%
    12:00 +27°C° 0 mm 2 m/s 653 mmHg 38%
    13:00 +27°C° 0 mm 2 m/s 652 mmHg 38%
    14:00 +27°C° 0 mm 3 m/s 652 mmHg 41%
    15:00 +27°C° 0 mm 3 m/s 652 mmHg 43%
    16:00 +26°C° 0 mm 3 m/s 652 mmHg 45%
    17:00 +25°C° 0 mm 3 m/s 651 mmHg 51%
    18:00 +22°C° 0 mm 3 m/s 651 mmHg 57%
    19:00 +20°C° 0 mm 2 m/s 650 mmHg 63%
    20:00 +19°C° 0 mm 2 m/s 650 mmHg 62%
    21:00 +18°C° 0 mm 2 m/s 650 mmHg 61%
    22:00 +18°C° 0 mm 2 m/s 650 mmHg 60%
    23:00 +17°C° 0 mm 2 m/s 650 mmHg 63%

    29 Juin, Samedi

    Heure Température Précipitation Vent Pression Humidité
    00:00 +17°C° 0 mm 2 m/s 650 mmHg 66%
    01:00 +16°C° 0 mm 2 m/s 650 mmHg 68%
    02:00 +16°C° 0 mm 2 m/s 650 mmHg 70%
    03:00 +15°C° 0 mm 2 m/s 650 mmHg 71%
    04:00 +15°C° 0 mm 2 m/s 650 mmHg 73%
    05:00 +16°C° 0 mm 2 m/s 650 mmHg 67%
    06:00 +17°C° 0 mm 2 m/s 651 mmHg 62%
    07:00 +18°C° 0 mm 2 m/s 651 mmHg 56%
    08:00 +20°C° 0 mm 2 m/s 652 mmHg 50%
    09:00 +21°C° 0 mm 2 m/s 652 mmHg 45%
    10:00 +23°C° 0 mm 1 m/s 653 mmHg 39%
    11:00 +24°C° 0 mm 2 m/s 653 mmHg 40%
    12:00 +24°C° 0 mm 2 m/s 653 mmHg 42%
    13:00 +25°C° 0 mm 2 m/s 653 mmHg 43%
    14:00 +25°C° 0 mm 2 m/s 653 mmHg 44%
    15:00 +25°C° 0 mm 2 m/s 653 mmHg 44%
    16:00 +25°C° 0 mm 2 m/s 653 mmHg 45%
    17:00 +23°C° 0 mm 2 m/s 653 mmHg 49%
    18:00 +21°C° 0 mm 1 m/s 653 mmHg 54%
    19:00 +20°C° 0 mm 1 m/s 652 mmHg 59%
    20:00 +19°C° 0 mm 1 m/s 652 mmHg 58%
    21:00 +18°C° 0 mm 1 m/s 652 mmHg 56%
    22:00 +16°C° 0 mm 2 m/s 653 mmHg 55%
    23:00 +15°C° 0 mm 2 m/s 652 mmHg 55%

    30 Juin, Dimanche

    Heure Température Précipitation Vent Pression Humidité
    00:00 +15°C° 0 mm 2 m/s 652 mmHg 55%
    01:00 +14°C° 0 mm 2 m/s 652 mmHg 55%
    02:00 +14°C° 0 mm 2 m/s 652 mmHg 55%
    03:00 +13°C° 0 mm 2 m/s 652 mmHg 56%
    04:00 +13°C° 0 mm 2 m/s 652 mmHg 56%
    05:00 +14°C° 0 mm 2 m/s 652 mmHg 54%
    06:00 +16°C° 0 mm 2 m/s 653 mmHg 51%
    07:00 +19°C° 0 mm 1 m/s 654 mmHg 48%
    08:00 +20°C° 0 mm 1 m/s 655 mmHg 43%
    09:00 +22°C° 0 mm 1 m/s 655 mmHg 38%
    10:00 +23°C° 0 mm 1 m/s 656 mmHg 33%
    11:00 +24°C° 0 mm 1 m/s 656 mmHg 35%
    12:00 +24°C° 0 mm 2 m/s 656 mmHg 36%
    13:00 +24°C° 0 mm 2 m/s 656 mmHg 38%
    14:00 +24°C° 0 mm 2 m/s 656 mmHg 42%
    15:00 +22°C° 0 mm 3 m/s 655 mmHg 47%
    16:00 +22°C° 0 mm 3 m/s 655 mmHg 52%
    17:00 +20°C° 0 mm 2 m/s 655 mmHg 60%
    18:00 +19°C° 0 mm 2 m/s 655 mmHg 68%
    19:00 +18°C° 0 mm 1 m/s 654 mmHg 76%
    20:00 +16°C° 0 mm 1 m/s 655 mmHg 76%
    21:00 +16°C° 0 mm 1 m/s 655 mmHg 75%
    22:00 +15°C° 0 mm 1 m/s 655 mmHg 74%
    23:00 +15°C° 0 mm 1 m/s 655 mmHg 71%

    1 Juillet, Lundi

    Heure Température Précipitation Vent Pression Humidité
    00:00 +14°C° 0 mm 2 m/s 655 mmHg 67%
    01:00 +14°C° 0 mm 2 m/s 654 mmHg 64%
    02:00 +13°C° 0 mm 2 m/s 654 mmHg 63%
    03:00 +13°C° 0 mm 2 m/s 654 mmHg 63%
    04:00 +13°C° 0 mm 2 m/s 654 mmHg 62%
    05:00 +14°C° 0 mm 1 m/s 655 mmHg 59%
    06:00 +16°C° 0 mm 1 m/s 655 mmHg 56%
    07:00 +19°C° 0 mm 1 m/s 656 mmHg 53%
    08:00 +20°C° 0 mm 1 m/s 656 mmHg 49%
    09:00 +22°C° 0 mm 1 m/s 657 mmHg 46%
    10:00 +23°C° 0 mm 1 m/s 657 mmHg 42%
    11:00 +24°C° 0 mm 1 m/s 657 mmHg 42%
    12:00 +24°C° 0 mm 1 m/s 657 mmHg 41%
    13:00 +24°C° 0 mm 2 m/s 657 mmHg 41%
    14:00 +24°C° 0 mm 2 m/s 656 mmHg 45%
    15:00 +23°C° 0 mm 2 m/s 656 mmHg 49%
    16:00 +22°C° 0 mm 3 m/s 656 mmHg 53%
    17:00 +20°C° 0 mm 2 m/s 655 mmHg 61%
    18:00 +19°C° 0 mm 2 m/s 655 mmHg 69%
    19:00 +18°C° 0 mm 1 m/s 654 mmHg 77%
    20:00 +18°C° 0 mm 1 m/s 654 mmHg 78%
    21:00 +16°C° 0 mm 1 m/s 654 mmHg 79%
    22:00 +15°C° 0 mm 1 m/s 654 mmHg 80%
    23:00 +15°C° 0 mm 1 m/s 654 mmHg 78%
    Voir plus